Regional Weather Roundup
Issued by NWS

Home | Current Version | Previous Version | Text Only | Print | Product List | Glossary On
Versions: 1 2 3 4 5 6 7 8 9 10 11 12 13 14 15 16 17 18 19 20 21 22 23 24 25 26 27 28 29 30 31 32 33 34 35 36 37 38 39 40 41 42 43 44 45 46 47 48 49 50
000
ASUS43 KTOP 020159
RWRKS

WEATHER ROUNDUP FOR KANSAS
NATIONAL WEATHER SERVICE GOODLAND KS
900 PM CDT WED APR 01 2015

NOTE:  "FAIR" INDICATES FEW OR NO CLOUDS BELOW 12,000 FEET WITH NO
SIGNIFICANT WEATHER AND/OR OBSTRUCTIONS TO VISIBILITY.

KSZ001>006-013>018-027>032-041>047-020300-
NORTHWEST KANSAS

CITY           SKY/WX    TMP DP  RH WIND       PRES   REMARKS
GOODLAND       CLOUDY    60  40  47 N29G40    29.64F
HAYS           PTCLDY    73  43  33 S14       29.50S
HILL CITY      PTCLDY    79  30  16 W9        29.53R
RUSSELL        MOCLDY    75  50  41 S17       29.49S
$$

KSZ061>065-074>080-084>089-020300-
SOUTHWEST KANSAS

CITY           SKY/WX    TMP DP  RH WIND       PRES   REMARKS
DODGE CITY     CLEAR     67  29  24 S8        29.55R
ELKHART          N/A     71  27  19 SW12        N/A
GARDEN CITY    CLEAR     67  32  27 SE6       29.54S
GREAT BEND     MOCLDY    75  52  43 S26       29.52R
LIBERAL        PTCLDY    73  34  23 S33G49    29.61R
$$

KSZ066>073-081>083-090>101-020300-
SOUTHEAST KANSAS

CITY           SKY/WX    TMP DP  RH WIND       PRES   REMARKS
CHANUTE        CLEAR     70  56  61 SE13      29.72R
COFFEYVILLE    CLEAR     69  58  67 SE15      29.72R
HUTCHINSON     PTCLDY    76  55  48 S28G37    29.59R
MEDICINE LODGE   N/A     74  61  63 S18G30    29.60R
NEWTON         MOCLDY    73  50  43 S16       29.66R
PARSONS        CLEAR     71  57  61 S10G18    29.73R
WICHITA INTL   PTCLDY    74  54  49 S16G24    29.63R
WICHITA JABRA  PTCLDY    74  53  48 S20G26    29.64R
WINFIELD       CLEAR     73  57  57 S18       29.68R
$$

KSZ007>012-019>026-033>040-048>060-102>105-020300-
NORTHEAST KANSAS

CITY           SKY/WX    TMP DP  RH WIND       PRES   REMARKS
CONCORDIA      MOCLDY    76  53  44 S23G33    29.52S
EMPORIA        CLEAR     70  55  59 SE17G23   29.65R
LAWRENCE       CLEAR     63  56  78 SE13      29.69S
MANHATTAN      CLEAR     73  59  61 S20G28    29.59S
OLATHE IND     CLEAR     60  56  86 SE16      29.72S
OLATHE EXE     CLEAR     61  57  87 SE13      29.71F
SALINA         MOCLDY    77  54  44 S21       29.55S
TOPEKA BILLARD CLEAR     65  58  78 SE15      29.66S
TOPEKA FORBES  CLEAR     66  58  75 SE17      29.65S
$$


USA.gov is the U.S. government's official web portal to all federal, state and local government web resources and services.